Dalaman, Turkey

10:08 AM +03 on December 09, 2016 (GMT +0300)
Dalaman

Weather History for LTBS - October, 2012

Change the Weather History Date:

Monday, October 29, 2012

  Actual Average Record
Temperature  
Mean Temperature 67 °F -  
Max Temperature 76 °F 72 °F 80 °F (1999)
Min Temperature 58 °F 52 °F 42 °F (1996)
Cooling Degree Days 2    
Growing Degree Days 17 (Base 50)    
Moisture  
Dew Point 61 °F    
Average Humidity 77    
Maximum Humidity 94    
Minimum Humidity 57    
Precipitation  
Precipitation 0.00 in - - ()
Sea Level Pressure  
Sea Level Pressure 29.99 in    
Wind  
Wind Speed 6 mph ()    
Max Wind Speed 13 mph    
Max Gust Speed -    
Visibility 6.2 miles    
Events      
Averages and records for this station are not official NWS values.
T = Trace of Precipitation, MM = Missing Value Source: Averaged Metar Reports

Daily Weather History Graph

Daily Weather History Graph

Search for Another Location

Airport or City:

Trip Planner

Search our weather history database for the weather conditions in past years. The results will help you decide how hot, cold, wet, or windy it might be!

Date:

Astronomy

Oct. 29, 2012 Rise Set
Actual Time 6:25 AM EET 5:10 PM EET
Civil Twilight 5:59 AM EET 5:37 PM EET
Nautical Twilight 5:28 AM EET 6:07 PM EET
Astronomical Twilight 4:58 AM EET 6:38 PM EET
Moon 4:52 PM EET (10/29) 5:57 AM EET (10/29)
Length of Visible Light 11h 38m
Length of Day
10h 45m
Full, 100% of the Moon is Illuminated
Oct 29
Full
Oct 29
Full
Nov 7
Last Quarter
Nov 14
New
Nov 20
First Quarter

Hourly Weather History & Observations

Time (EET) Temp. Dew Point Humidity Pressure Visibility Wind Dir Wind Speed Gust Speed Precip Events Conditions
12:20 AM 60.8 °F 59.0 °F 94% 30.06 in 6.2 mi NNE 5.8 mph - N/A   Scattered Clouds
12:50 AM 60.8 °F 59.0 °F 94% 30.06 in 6.2 mi ENE 4.6 mph - N/A   Mostly Cloudy
1:20 AM 60.8 °F 59.0 °F 94% 30.06 in 6.2 mi NE 3.5 mph - N/A   Mostly Cloudy
1:50 AM 60.8 °F 57.2 °F 88% 30.06 in 6.2 mi ENE 3.5 mph - N/A   Mostly Cloudy
2:00 AM 60 °F 58 °F 90% 30.07 in 6 mi ENE 3.5 mph - -   Scattered Clouds
2:20 AM 60.8 °F 59.0 °F 94% 30.04 in 6.2 mi ENE 4.6 mph - N/A   Mostly Cloudy
2:50 AM 59.0 °F 57.2 °F 94% 30.04 in 6.2 mi ENE 4.6 mph - N/A   Mostly Cloudy
3:20 AM 60.8 °F 59.0 °F 94% 30.04 in 6.2 mi NNE 4.6 mph - N/A   Mostly Cloudy
3:50 AM 60.8 °F 57.2 °F 88% 30.04 in 6.2 mi ENE 4.6 mph - N/A   Mostly Cloudy
4:20 AM 59.0 °F 57.2 °F 94% 30.04 in 6.2 mi ENE 4.6 mph - N/A   Mostly Cloudy
4:50 AM 59.0 °F 57.2 °F 94% 30.01 in 6.2 mi ENE 5.8 mph - N/A   Mostly Cloudy
5:20 AM 59.0 °F 57.2 °F 94% 30.01 in 6.2 mi ENE 4.6 mph - N/A   Mostly Cloudy
5:50 AM 59.0 °F 57.2 °F 94% 30.01 in 6.2 mi NNE 5.8 mph - N/A   Mostly Cloudy
6:20 AM 59.0 °F 57.2 °F 94% 30.01 in 6.2 mi NE 4.6 mph - N/A   Mostly Cloudy
6:50 AM 59.0 °F 57.2 °F 94% 30.04 in 6.2 mi ENE 4.6 mph - N/A   Mostly Cloudy
7:20 AM 60.8 °F 59.0 °F 94% 30.04 in 6.2 mi ENE 4.6 mph - N/A   Scattered Clouds
7:50 AM 60.8 °F 59.0 °F 94% 30.04 in 6.2 mi NNE 4.6 mph - N/A   Scattered Clouds
8:00 AM 62 °F 58 °F 84% 30.08 in 6 mi NNE 4.6 mph - -   Scattered Clouds
8:20 AM 64.4 °F 59.0 °F 83% 30.04 in 6.2 mi ENE 4.6 mph - N/A   Scattered Clouds
8:50 AM 66.2 °F 60.8 °F 83% 30.04 in 6.2 mi ENE 4.6 mph - N/A   Mostly Cloudy
9:20 AM 69.8 °F 60.8 °F 73% 30.04 in 6.2 mi NNE 3.5 mph - N/A   Mostly Cloudy
9:50 AM 73.4 °F 60.8 °F 65% 30.01 in 6.2 mi SE 4.6 mph - N/A   Mostly Cloudy
10:20 AM 75.2 °F 59.0 °F 57% 30.01 in 6.2 mi SE 4.6 mph - N/A   Mostly Cloudy
10:50 AM 75.2 °F 59.0 °F 57% 30.01 in 6.2 mi South 6.9 mph - N/A   Mostly Cloudy
11:20 AM 75.2 °F 60.8 °F 61% 30.01 in 6.2 mi Variable 4.6 mph - N/A   Mostly Cloudy
11:50 AM 75.2 °F 62.6 °F 65% 30.01 in 6.2 mi South 9.2 mph - N/A   Mostly Cloudy
12:20 PM 75.2 °F 62.6 °F 65% 29.98 in 6.2 mi South 10.4 mph - N/A   Mostly Cloudy
12:50 PM 75.2 °F 62.6 °F 65% 29.98 in 6.2 mi South 11.5 mph - N/A   Mostly Cloudy
1:20 PM 75.2 °F 64.4 °F 69% 29.98 in 6.2 mi South 12.7 mph - N/A   Mostly Cloudy
1:50 PM 75.2 °F 62.6 °F 65% 29.98 in 6.2 mi South 11.5 mph - N/A   Mostly Cloudy
2:00 PM 74 °F 62 °F 58% 30.01 in 6 mi South 11.5 mph - -   Partly Cloudy
2:20 PM 75.2 °F 62.6 °F 65% 29.95 in 6.2 mi South 12.7 mph - N/A   Mostly Cloudy
2:50 PM 75.2 °F 64.4 °F 69% 29.95 in 6.2 mi SSE 10.4 mph - N/A   Mostly Cloudy
3:20 PM 75.2 °F 62.6 °F 65% 29.95 in 6.2 mi South 11.5 mph - N/A   Mostly Cloudy
3:50 PM 75.2 °F 62.6 °F 65% 29.95 in 6.2 mi SSE 8.1 mph - N/A   Mostly Cloudy
4:20 PM 73.4 °F 62.6 °F 69% 29.92 in 6.2 mi SSE 9.2 mph - N/A   Mostly Cloudy
4:50 PM 73.4 °F 62.6 °F 69% 29.92 in 6.2 mi SSE 9.2 mph - N/A   Mostly Cloudy
5:20 PM 73.4 °F 62.6 °F 69% 29.92 in 6.2 mi SSE 9.2 mph - N/A   Mostly Cloudy
5:50 PM 73.4 °F 64.4 °F 73% 29.92 in 6.2 mi South 10.4 mph - N/A   Mostly Cloudy
6:20 PM 73.4 °F 62.6 °F 69% 29.92 in 6.2 mi South 9.2 mph - N/A   Mostly Cloudy
6:50 PM 73.4 °F 62.6 °F 69% 29.92 in 6.2 mi SSE 9.2 mph - N/A   Mostly Cloudy
7:20 PM 73.4 °F 62.6 °F 69% 29.92 in 6.2 mi SSE 9.2 mph - N/A   Mostly Cloudy
7:50 PM 73.4 °F 62.6 °F 69% 29.92 in 6.2 mi SSE 9.2 mph - N/A   Mostly Cloudy
8:00 PM 73 °F 63 °F 64% 29.93 in 6 mi SSE 9.2 mph - -   Partly Cloudy
8:20 PM 73.4 °F 62.6 °F 69% 29.92 in 6.2 mi SSE 8.1 mph - N/A   Mostly Cloudy
8:50 PM 73.4 °F 64.4 °F 73% 29.92 in 6.2 mi SSE 9.2 mph - N/A   Mostly Cloudy
9:20 PM 73.4 °F 64.4 °F 73% 29.92 in 6.2 mi SSE 9.2 mph - N/A   Mostly Cloudy
9:50 PM 73.4 °F 62.6 °F 69% 29.92 in 6.2 mi SE 6.9 mph - N/A   Mostly Cloudy
10:20 PM 73.4 °F 62.6 °F 69% 29.92 in 6.2 mi SSE 9.2 mph - N/A   Mostly Cloudy
10:50 PM 73.4 °F 60.8 °F 65% 29.92 in 6.2 mi SE 6.9 mph - N/A   Mostly Cloudy
11:20 PM 69.8 °F 60.8 °F 73% 29.92 in 6.2 mi East 6.9 mph - N/A   Mostly Cloudy
11:50 PM 69.8 °F 60.8 °F 73% 29.92 in 6.2 mi ESE 5.8 mph - N/A   Mostly Cloudy